Regional Weather Roundup
Issued by NWS

Home | Current Version | Previous Version | Text Only | Print | Product List | Glossary Off
Versions: 1 2 3 4 5 6 7 8 9 10 11 12 13 14 15 16 17 18 19 20 21 22 23 24 25 26 27 28 29 30 31 32 33 34 35 36 37 38 39 40 41 42 43 44 45 46 47 48 49 50

000
ASUS43 KMKX 270059
RWRWI

WISCONSIN REGIONAL WEATHER ROUNDUP
NATIONAL WEATHER SERVICE MILWAUKEE/SULLIVAN WI
700 PM CST THU FEB 26 2015

NOTE: "FAIR" INDICATES FEW OR NO CLOUDS BELOW 12,000 FEET WITH NO
SIGNIFICANT WEATHER AND/OR OBSTRUCTIONS TO VISIBILITY.

WIZ001-002-006>008-014>016-023>028-270200-
NORTHWEST WISCONSIN

CITY           SKY/WX    TMP DP  RH WIND       PRES   REMARKS
SUPERIOR ARPT  CLEAR      6 -10  48 W5        30.42S WCI  -3
ASHLAND        CLEAR      2 -12  52 SW6       30.39R WCI  -9
HAYWARD        CLEAR      1 -12  54 CALM      30.37R
SIREN          CLEAR      5  -9  53 W8        30.42R WCI  -9
CUMBERLAND     CLEAR      3 -11  51 NW6       30.37S WCI  -8
RICE LAKE      CLEAR      4 -10  52 CALM      30.40R
CHETEK         CLEAR      4 -10  53 W5        30.39R WCI  -5
LADYSMITH      CLEAR      6 -10  47 NW5       30.37R WCI  -3
EAU CLAIRE     PTCLDY     4 -10  52 W3        30.41R
MENOMONIE      CLEAR      6  -8  51 W5        30.42R WCI  -3
NEW RICHMOND   CLEAR      2 -10  58 NW6       30.43R WCI -10
OSCEOLA        CLEAR      5  -9  52 NW6       30.46R WCI  -5
$$

WIZ003>005-009-010-017-018-270200-
NORTH CENTRAL WISCONSIN

CITY           SKY/WX    TMP DP  RH WIND       PRES   REMARKS
MANITOWISH WTR CLEAR     -3 -13  63 NW5       30.28R WCI -14
ARBOR VITAE    CLEAR     -1 -11  64 CALM      30.28R
WOODRUFF       CLEAR     -1 -11  64 CALM      30.28R
RHINELANDER    CLEAR     -1 -12  59 CALM      30.28R
EAGLE RIVER    CLEAR      2 -11  54 CALM      30.26R
LAND O LAKES   CLEAR      1  -9  61 NW5       30.27R WCI  -8
PHILLIPS       CLEAR      3 -10  54 CALM      30.30R
TOMAHAWK       CLEAR     -1 -11  60 CALM      30.30R
MEDFORD        CLEAR      3  -9  58 W6        30.30R WCI  -8
MERRILL        CLEAR      6  -9  48 CALM      30.31R
$$

WIZ029-030-035-036-043>047-270200-
CENTRAL WISCONSIN

CITY           SKY/WX    TMP DP  RH WIND       PRES   REMARKS
WAUSAU         CLEAR      6  -8  52 NW7       30.31R WCI  -6
MOSINEE        CLEAR      5  -8  56 W8        30.33R WCI  -8
MARSHFIELD     CLEAR      3  -9  57 W6        30.34R WCI  -8
STEVENS POINT  CLEAR      5  -7  58 W6        30.34R WCI  -6
WAUPACA        FAIR      11  -8  41 CALM      30.35R
WAUTOMA        NOT AVBL
WISC RAPIDS    CLEAR      4 -10  52 W5        30.37R WCI  -5
CAMP DOUGLAS   NOT AVBL
$$

WIZ011>013-019>022-031-037>040-048>050-270200-
NORTHEAST WISCONSIN

CITY           SKY/WX    TMP DP  RH WIND       PRES   REMARKS
ANTIGO         CLEAR      3 -10  54 NW6       30.27S WCI  -8
SHAWANO        CLEAR     11  -8  41 CALM      30.34R
OCONTO         FAIR       1  -5  76 CALM      30.35R
STURGEON BAY   CLEAR      3  -8  60 SW3       30.35R
GREEN BAY      CLEAR      9  -3  58 SW5       30.35R WCI   1
MANITOWOC      NOT AVBL
APPLETON       PTCLDY     9  -9  43 W6        30.34R WCI  -1
CLINTONVILLE   CLEAR     10  -8  44 W5        30.34R WCI   2
OSHKOSH        CLEAR      7  -4  60 CALM      30.35R
$$

WIZ032>034-041-042-053>061-270200-
SOUTHWEST WISCONSIN

CITY           SKY/WX    TMP DP  RH WIND       PRES   REMARKS
LA CROSSE      CLEAR      3  -8  60 NW7       30.44R WCI  -9
SPARTA         CLEAR      6  -8  54 CALM      30.41R
VIROQUA        CLEAR      1  -9  65 NW6       30.36R WCI -11
BOSCOBEL       CLEAR      8  -6  52 NW6       30.43R WCI  -2
PRAIRIE DU CHI CLEAR      5  -8  55 W9        30.44R WCI  -9
PLATTEVILLE    CLEAR      7  -6  55 NW7       30.37R WCI  -5
$$

WIZ056-057-062-063-064-067-068-270200-
SOUTH CENTRAL WISCONSIN

CITY           SKY/WX    TMP DP  RH WIND       PRES   REMARKS
REEDSBURG      CLEAR      8  -5  54 NW8       30.37R WCI  -4
BARABOO/DELLS  CLEAR      8  -8  47 NW3       30.36R
LONE ROCK      NOT AVBL
MINERAL POINT  MOCLDY     9  -6  52 NW5       30.35R WCI   0
MADISON        CLEAR      7  -7  52 NW5       30.37R WCI  -2
MIDDLETON      CLEAR      6  -6  58 NW3       30.37R
WATERTOWN      CLEAR      8  -4  58 CALM      30.35R
MONROE         CLEAR      9  -4  56 NW5       30.34R WCI   0
JANESVILLE     CLEAR      9  -6  52 NW5       30.37R WCI   0
$$

WIZ051-052-058>065-066-070>072-270200-
SOUTHEAST WISCONSIN

CITY           SKY/WX    TMP DP  RH WIND       PRES   REMARKS
MILWAUKEE      PTCLDY    10  -6  48 NW9       30.37R WCI  -3
WAUKESHA       CLEAR      7  -6  56 CALM      30.36R
MILWAUKEE/TIMM CLEAR      9  -8  47 NW7       30.37R WCI  -3
RACINE         CLEAR      9  -6  50 NW8       30.38R WCI  -3
BURLINGTON     CLEAR      4  -8  56 NW3       30.36R
KENOSHA        CLEAR      6  -6  57 NW6       30.36R WCI  -4
FOND DU LAC    CLEAR      3  -6  66 SW3       30.36R
SHEBOYGAN      CLEAR      3  -7  63 CALM      30.36R
WEST BEND      CLEAR      9  -6  52 CALM      30.35R
JUNEAU         CLEAR      7  -6  55 CALM      30.35R
$$

LSZ147-162-270200-
LAKE SUPERIOR

STATION/POSITION TIME  TEMP    WIND        PRES    WAVE
                       AIR SEA DIR/SP/G            HT/PER
                 (UTC) (F)     (DEG/KT/KT) (MB)    (FT/S)
DEVILS ISLAND    0000   11     290/ 13/ 15 1029.8S
PORT WING        0000    8     240/  5/  8 1029.1
SAXON HARBOR     0000    7      CALM  /  4 1028.8R
$$

LMZ867-665-643>646-270200-
LAKE MICHIGAN

STATION/POSITION TIME  TEMP    WIND        PRES    WAVE
                       AIR SEA DIR/SP/G            HT/PER
                 (UTC) (F)     (DEG/KT/KT) (MB)    (FT/S)
NORTHPORT PIER   0023    5     240/  3/  4 1027.4R
SISTER BAY       2258   16        CALM       N/A
KEWAUNEE LAKESHO 0000    9      CALM  /  1 1026.5R
SHEBOYGAN LAKESH 0000   10     330/  8/  9 1029.8R
PORT WASHINGTON  0040   10     300/  3/  4 1029.1R
MILWAUKEE LAKESH 0000   12     330/  8/ 11   N/A
KENOSHA   LAKESH 0000   13     350/ 12/ 15 1027.1R
$$

TC  - TEMPERATURE IN CELSIUS
VSB - VISIBILITY IN STATUTE MILES
WCI - WIND CHILL INDEX
HX  - HEAT INDEX




USA.gov is the U.S. government's official web portal to all federal, state and local government web resources and services.